sat.trackr.live / text

‹ back to catalog

STARLINK-31297

NORAD 59158 · 2024-044G

PAYLOAD ACTIVE UNKNOWN

§ Identity

Operator
Country
US
Launch date
2024-03-04
Launch site
AFETR
Launch vehicle
Mass (kg)
RCS (m²)

Purposes: comms

External: N2YO · Heavens-Above · Gunter

§ Orbital elements

Epoch: 2026-05-25T01:24:26.407008Z

Period
94.27 min
Inclination
43.0047°
Eccentricity
0.0001060
Mean motion
15.27592795 rev/d
Perigee alt
482.3 km
Apogee alt
483.7 km
Semi-major
6,861.1 km
B*
6.0731e-5
RAAN
35.8733°
Arg perigee
268.0620°
Mean anomaly
92.0110°
Rev number
12,527

§ Raw data

STARLINK-312971 59158U 24044G   26145.05863897  .00001410  00000+0  60731-4 0  99922 59158  43.0047  35.8733 0001060 268.0620  92.0110 15.27592795125270

JSON: /api/v1/satellites/59158 · /tle

For live sub-satellite position, see the globe view (requires WebGL).

§ Visibility from observer

Set your observer location to see the next 7 days of passes ≥ 10°. The values pass through the URL so the page stays shareable.

No JS? Fill the form by hand. The geolocation button needs JavaScript.